^^
Station Historical Data
Daily Summary for May 13, 2019 Units:  English    Metric   Both
« Previous Day
Next Day »
Daily Weekly Monthly Yearly Custom
  High: Low: Average:
Temperature: 78 °F 44.7 °F 61.8 °F
Dew Point: 53.1 °F 36 °F 45.8 °F
Humidity: 83% 38% 58%
Wind Speed: 24mph 1mph 8.4mph
Wind Gust: 24mph - -
Wind- - SE
Pressure: 29.69 in 29.53 in -
Precipitation: 0 in    
Historical Graphs
 
 
Tabular Data for May 13, 2019
Time Temperature Dew Point Pressure Wind Wind Speed Wind Gust Humidity Rainfall Rate (Hourly) solar Conditions
00:04 50.4 °F 36.6 °F 29.68 in ESE 4 mph 7 mph 59% 0 in 0.00 W/m2
00:09 50.3 °F 36.5 °F 29.68 in ESE 6 mph 7 mph 59% 0 in 0.00 W/m2
00:14 50.1 °F 36.3 °F 29.68 in ESE 4 mph 8 mph 59% 0 in 0.00 W/m2
00:19 49.9 °F 36.1 °F 29.67 in ESE 7 mph 8 mph 59% 0 in 0.00 W/m2
00:24 49.6 °F 36.3 °F 29.68 in ESE 6 mph 8 mph 60% 0 in 0.00 W/m2
00:29 49.5 °F 36.2 °F 29.67 in ESE 6 mph 8 mph 60% 0 in 0.00 W/m2
00:34 49.5 °F 36.2 °F 29.68 in SE 5 mph 7 mph 60% 0 in 0.00 W/m2
00:39 49.5 °F 36.2 °F 29.68 in ESE 6 mph 7 mph 60% 0 in 0.00 W/m2
00:44 49.4 °F 36.1 °F 29.68 in ESE 7 mph 7 mph 60% 0 in 0.00 W/m2
00:49 49.3 °F 36.4 °F 29.68 in SE 5 mph 7 mph 61% 0 in 0.00 W/m2
00:54 49.2 °F 36.3 °F 29.68 in ESE 7 mph 7 mph 61% 0 in 0.00 W/m2
00:59 49 °F 36.1 °F 29.68 in ESE 6 mph 7 mph 61% 0 in 0.00 W/m2
01:04 48.9 °F 36.4 °F 29.68 in ESE 6 mph 8 mph 62% 0 in 0.00 W/m2
01:09 48.7 °F 36.3 °F 29.67 in East 7 mph 8 mph 62% 0 in 0.00 W/m2
01:14 48.4 °F 36 °F 29.67 in ESE 7 mph 8 mph 62% 0 in 0.00 W/m2
01:19 48.2 °F 36.2 °F 29.67 in ESE 7 mph 8 mph 63% 0 in 0.00 W/m2
01:24 48.2 °F 36.2 °F 29.67 in ESE 8 mph 8 mph 63% 0 in 0.00 W/m2
01:29 48.1 °F 36.1 °F 29.67 in ESE 5 mph 9 mph 63% 0 in 0.00 W/m2
01:34 48.1 °F 36.1 °F 29.67 in ESE 6 mph 9 mph 63% 0 in 0.00 W/m2
01:39 48.3 °F 36.3 °F 29.67 in SE 5 mph 9 mph 63% 0 in 0.00 W/m2
01:44 48.3 °F 36.3 °F 29.67 in SE 7 mph 9 mph 63% 0 in 0.00 W/m2
01:49 48 °F 36.4 °F 29.67 in SE 4 mph 8 mph 64% 0 in 0.00 W/m2
01:54 47.8 °F 36.2 °F 29.67 in ESE 6 mph 8 mph 64% 0 in 0.00 W/m2
01:59 47.6 °F 36 °F 29.67 in ESE 7 mph 8 mph 64% 0 in 0.00 W/m2
02:04 47.5 °F 36.3 °F 29.67 in ESE 5 mph 8 mph 65% 0 in 0.00 W/m2
02:09 47.6 °F 36.4 °F 29.67 in ESE 5 mph 9 mph 65% 0 in 0.00 W/m2
02:14 47.6 °F 36.8 °F 29.66 in ESE 7 mph 9 mph 66% 0 in 0.00 W/m2
02:19 47.7 °F 36.9 °F 29.66 in SE 7 mph 8 mph 66% 0 in 0.00 W/m2
02:24 47.7 °F 36.9 °F 29.66 in ESE 5 mph 9 mph 66% 0 in 0.00 W/m2
02:29 47.6 °F 36.8 °F 29.66 in ESE 7 mph 9 mph 66% 0 in 0.00 W/m2
02:34 47.4 °F 36.6 °F 29.66 in ESE 7 mph 9 mph 66% 0 in 0.00 W/m2
02:39 47.3 °F 36.9 °F 29.66 in ESE 8 mph 9 mph 67% 0 in 0.00 W/m2
02:44 47.3 °F 36.9 °F 29.66 in East 8 mph 9 mph 67% 0 in 0.00 W/m2
02:49 46.8 °F 36.4 °F 29.66 in East 6 mph 9 mph 67% 0 in 0.00 W/m2
02:54 46.3 °F 36.3 °F 29.66 in ESE 6 mph 9 mph 68% 0 in 0.00 W/m2
02:59 46 °F 36.4 °F 29.66 in ESE 8 mph 9 mph 69% 0 in 0.00 W/m2
03:04 45.9 °F 36.7 °F 29.66 in East 8 mph 9 mph 70% 0 in 0.00 W/m2
03:09 45.8 °F 36.9 °F 29.66 in ESE 7 mph 10 mph 71% 0 in 0.00 W/m2
03:14 45.8 °F 36.9 °F 29.66 in East 8 mph 10 mph 71% 0 in 0.00 W/m2
03:19 45.9 °F 37 °F 29.66 in ESE 7 mph 11 mph 71% 0 in 0.00 W/m2
03:24 46 °F 37.1 °F 29.66 in ESE 6 mph 11 mph 71% 0 in 0.00 W/m2
03:29 46 °F 37.1 °F 29.66 in East 8 mph 11 mph 71% 0 in 0.00 W/m2
03:34 45.7 °F 37.2 °F 29.66 in ESE 8 mph 11 mph 72% 0 in 0.00 W/m2
03:39 45.5 °F 37.3 °F 29.66 in ESE 8 mph 9 mph 73% 0 in 0.00 W/m2
03:44 45.4 °F 37.2 °F 29.66 in ESE 8 mph 10 mph 73% 0 in 0.00 W/m2
03:49 45.2 °F 37.4 °F 29.66 in ESE 7 mph 10 mph 74% 0 in 0.00 W/m2
03:54 45.2 °F 37.4 °F 29.66 in ESE 6 mph 10 mph 74% 0 in 0.00 W/m2
03:59 45.2 °F 37.4 °F 29.66 in ESE 8 mph 10 mph 74% 0 in 0.00 W/m2
04:04 45.3 °F 37.8 °F 29.66 in ESE 6 mph 8 mph 75% 0 in 0.00 W/m2
04:09 45.4 °F 37.6 °F 29.66 in ESE 9 mph 9 mph 74% 0 in 0.00 W/m2
04:14 45.5 °F 38 °F 29.66 in SE 7 mph 9 mph 75% 0 in 0.00 W/m2
04:19 45.4 °F 37.9 °F 29.67 in SE 4 mph 9 mph 75% 0 in 0.00 W/m2
04:24 45.2 °F 38.1 °F 29.68 in SSE 2 mph 9 mph 76% 0 in 0.00 W/m2
04:29 45 °F 37.9 °F 29.69 in SSE 6 mph 9 mph 76% 0 in 0.00 W/m2
04:34 44.9 °F 37.8 °F 29.69 in SSE 5 mph 6 mph 76% 0 in 0.00 W/m2
04:39 44.9 °F 38.1 °F 29.68 in SSE 6 mph 7 mph 77% 0 in 0.00 W/m2
04:44 44.7 °F 37.9 °F 29.67 in SE 8 mph 8 mph 77% 0 in 0.00 W/m2
04:49 44.9 °F 38.1 °F 29.67 in SE 5 mph 9 mph 77% 0 in 0.00 W/m2
04:54 45.2 °F 38.1 °F 29.66 in East 9 mph 11 mph 76% 0 in 0.00 W/m2
04:59 45 °F 37.9 °F 29.66 in ESE 8 mph 11 mph 76% 0 in 0.00 W/m2
05:04 44.9 °F 38.1 °F 29.66 in ESE 11 mph 11 mph 77% 0 in 0.00 W/m2
05:09 45.3 °F 38.8 °F 29.65 in SE 9 mph 12 mph 78% 0 in 0.00 W/m2
05:14 45.5 °F 38.7 °F 29.66 in ESE 9 mph 12 mph 77% 0 in 0.00 W/m2
05:19 45.7 °F 38.9 °F 29.65 in ESE 10 mph 11 mph 77% 0 in 0.00 W/m2
05:24 45.8 °F 39 °F 29.65 in ESE 9 mph 11 mph 77% 0 in 0.00 W/m2
05:29 46 °F 39.5 °F 29.65 in East 9 mph 11 mph 78% 0 in 0.00 W/m2
05:34 46 °F 39.5 °F 29.65 in ESE 8 mph 12 mph 78% 0 in 0.00 W/m2
05:39 46 °F 39.5 °F 29.65 in East 9 mph 12 mph 78% 0 in 0.00 W/m2
05:44 46 °F 39.9 °F 29.64 in ESE 11 mph 13 mph 79% 0 in 0.00 W/m2
05:49 46.2 °F 39.7 °F 29.64 in ESE 10 mph 14 mph 78% 0 in 0.00 W/m2
05:54 46.2 °F 39.7 °F 29.64 in ESE 11 mph 14 mph 78% 0 in 0.00 W/m2
05:59 46.1 °F 39.9 °F 29.63 in ESE 10 mph 14 mph 79% 0 in 0.00 W/m2
06:04 45.9 °F 39.8 °F 29.64 in East 8 mph 14 mph 79% 0 in 0.00 W/m2
06:09 45.7 °F 39.6 °F 29.64 in ESE 9 mph 14 mph 79% 0 in 0.00 W/m2
06:14 45.5 °F 39.7 °F 29.64 in ESE 8 mph 14 mph 80% 0 in 5.00 W/m2
06:19 45.4 °F 39.6 °F 29.64 in ESE 8 mph 11 mph 80% 0 in 9.00 W/m2
06:24 45.2 °F 39.4 °F 29.65 in East 8 mph 11 mph 80% 0 in 18.00 W/m2
06:29 45.1 °F 39.6 °F 29.65 in East 7 mph 11 mph 81% 0 in 26.00 W/m2
06:34 45.2 °F 40 °F 29.66 in SE 3 mph 11 mph 82% 0 in 28.00 W/m2
06:39 45.4 °F 40.2 °F 29.66 in SE 2 mph 8 mph 82% 0 in 26.00 W/m2
06:44 45.6 °F 40.4 °F 29.68 in West 3 mph 9 mph 82% 0 in 28.00 W/m2
06:49 45.6 °F 40.4 °F 29.68 in West 1 mph 9 mph 82% 0 in 28.00 W/m2
06:54 45.5 °F 40.3 °F 29.66 in SE 5 mph 7 mph 82% 0 in 33.00 W/m2
06:59 45.6 °F 40.7 °F 29.65 in SE 4 mph 8 mph 83% 0 in 33.00 W/m2
07:04 45.8 °F 40.9 °F 29.64 in SE 10 mph 11 mph 83% 0 in 35.00 W/m2
07:09 46.1 °F 41.2 °F 29.63 in ESE 10 mph 13 mph 83% 0 in 33.00 W/m2
07:14 46.5 °F 41.3 °F 29.63 in SE 10 mph 13 mph 82% 0 in 33.00 W/m2
07:19 46.4 °F 41.2 °F 29.63 in SE 10 mph 13 mph 82% 0 in 35.00 W/m2
07:24 46.3 °F 41.1 °F 29.64 in SSE 7 mph 13 mph 82% 0 in 39.00 W/m2
07:29 46.3 °F 41.1 °F 29.64 in SE 8 mph 11 mph 82% 0 in 44.00 W/m2
07:34 46.9 °F 42 °F 29.64 in SSE 6 mph 11 mph 83% 0 in 46.00 W/m2
07:39 47.9 °F 42.7 °F 29.64 in SSE 9 mph 9 mph 82% 0 in 47.00 W/m2
07:44 48.9 °F 43 °F 29.64 in SSE 10 mph 11 mph 80% 0 in 171.00 W/m2
07:49 49.8 °F 43.5 °F 29.64 in SE 10 mph 11 mph 79% 0 in 192.00 W/m2
07:54 50.5 °F 43.9 °F 29.64 in SSE 5 mph 11 mph 78% 0 in 214.00 W/m2
07:59 51.2 °F 44.2 °F 29.64 in SE 4 mph 11 mph 77% 0 in 253.00 W/m2
08:04 51.8 °F 44.5 °F 29.63 in SE 5 mph 13 mph 76% 0 in 320.00 W/m2
08:09 52.5 °F 44.8 °F 29.63 in SE 10 mph 13 mph 75% 0 in 366.00 W/m2
08:14 53 °F 44.9 °F 29.63 in SSE 6 mph 13 mph 74% 0 in 406.00 W/m2
08:19 53.6 °F 46.2 °F 29.63 in SSE 7 mph 14 mph 76% 0 in 401.00 W/m2
08:24 54.1 °F 45.3 °F 29.63 in SE 8 mph 15 mph 72% 0 in 171.00 W/m2
08:29 54.1 °F 45.3 °F 29.63 in South 7 mph 15 mph 72% 0 in 197.00 W/m2
08:34 54.5 °F 45.7 °F 29.63 in SSE 11 mph 15 mph 72% 0 in 352.00 W/m2
08:39 55.4 °F 46.2 °F 29.63 in SSE 8 mph 15 mph 71% 0 in 461.00 W/m2
08:44 56 °F 46 °F 29.64 in SSE 13 mph 15 mph 69% 0 in 429.00 W/m2
08:49 56.4 °F 46 °F 29.63 in SSE 13 mph 15 mph 68% 0 in 413.00 W/m2
08:54 56.8 °F 46.3 °F 29.63 in SE 11 mph 15 mph 68% 0 in 401.00 W/m2
08:59 57.2 °F 46.3 °F 29.63 in SSE 9 mph 15 mph 67% 0 in 406.00 W/m2
09:04 57.7 °F 46.4 °F 29.63 in SE 11 mph 15 mph 66% 0 in 420.00 W/m2
09:09 57.9 °F 46.2 °F 29.63 in SE 4 mph 17 mph 65% 0 in 434.00 W/m2
09:14 58.6 °F 46.9 °F 29.63 in SSE 12 mph 17 mph 65% 0 in 446.00 W/m2
09:19 59.4 °F 46.4 °F 29.63 in SSE 6 mph 17 mph 62% 0 in 459.00 W/m2
09:24 59.7 °F 46.7 °F 29.63 in SE 10 mph 17 mph 62% 0 in 476.00 W/m2
09:29 59.9 °F 47.3 °F 29.63 in SE 13 mph 13 mph 63% 0 in 490.00 W/m2
09:34 60.3 °F 47.2 °F 29.63 in SE 10 mph 13 mph 62% 0 in 503.00 W/m2
09:39 60.6 °F 47.1 °F 29.62 in ESE 10 mph 13 mph 61% 0 in 520.00 W/m2
09:44 61 °F 46.6 °F 29.63 in SSE 7 mph 14 mph 59% 0 in 534.00 W/m2
09:49 61.3 °F 47.7 °F 29.63 in SSE 11 mph 14 mph 61% 0 in 547.00 W/m2
09:54 61.8 °F 47.3 °F 29.63 in SSE 5 mph 16 mph 59% 0 in 561.00 W/m2
09:59 62.5 °F 47.5 °F 29.63 in SSE 4 mph 16 mph 58% 0 in 575.00 W/m2
10:04 62.6 °F 47.1 °F 29.62 in SE 7 mph 15 mph 57% 0 in 587.00 W/m2
10:09 62.9 °F 47.9 °F 29.62 in SSE 10 mph 15 mph 58% 0 in 598.00 W/m2
10:14 63.4 °F 46.9 °F 29.62 in SSE 10 mph 13 mph 55% 0 in 610.00 W/m2
10:19 63.3 °F 48.3 °F 29.62 in SSE 14 mph 14 mph 58% 0 in 629.00 W/m2
10:24 63.6 °F 48.5 °F 29.62 in SSE 12 mph 14 mph 58% 0 in 631.00 W/m2
10:29 64 °F 48.5 °F 29.62 in South 10 mph 15 mph 57% 0 in 647.00 W/m2
10:34 64.2 °F 48.6 °F 29.62 in South 10 mph 15 mph 57% 0 in 654.00 W/m2
10:39 64.2 °F 47.7 °F 29.62 in South 11 mph 17 mph 55% 0 in 671.00 W/m2
10:44 64.5 °F 48.9 °F 29.62 in SSE 14 mph 17 mph 57% 0 in 682.00 W/m2
10:49 64.8 °F 48.7 °F 29.62 in South 9 mph 17 mph 56% 0 in 693.00 W/m2
10:54 65.4 °F 48.8 °F 29.62 in SSW 12 mph 17 mph 55% 0 in 705.00 W/m2
10:59 65.6 °F 48 °F 29.62 in South 10 mph 16 mph 53% 0 in 715.00 W/m2
11:04 66 °F 47.9 °F 29.62 in SSE 10 mph 16 mph 52% 0 in 719.00 W/m2
11:09 66 °F 48.4 °F 29.61 in SSE 15 mph 17 mph 53% 0 in 701.00 W/m2
11:14 66.2 °F 49.1 °F 29.61 in South 14 mph 17 mph 54% 0 in 684.00 W/m2
11:19 66.5 °F 48.8 °F 29.61 in SSE 11 mph 18 mph 53% 0 in 675.00 W/m2
11:24 66.9 °F 48.7 °F 29.61 in South 10 mph 18 mph 52% 0 in 617.00 W/m2
11:29 67.1 °F 48.9 °F 29.61 in South 12 mph 20 mph 52% 0 in 619.00 W/m2
11:34 67.3 °F 49.1 °F 29.61 in South 11 mph 20 mph 52% 0 in 631.00 W/m2
11:39 67.9 °F 50.1 °F 29.61 in South 11 mph 17 mph 53% 0 in 696.00 W/m2
11:44 68.3 °F 47.8 °F 29.61 in South 13 mph 18 mph 48% 0 in 766.00 W/m2
11:49 68.5 °F 49.7 °F 29.61 in SSW 8 mph 18 mph 51% 0 in 800.00 W/m2
11:54 68.8 °F 48.9 °F 29.60 in SSE 12 mph 19 mph 49% 0 in 810.00 W/m2
11:59 68.7 °F 48.8 °F 29.60 in South 12 mph 20 mph 49% 0 in 761.00 W/m2
12:04 68.7 °F 47.6 °F 29.60 in South 15 mph 20 mph 47% 0 in 831.00 W/m2
12:09 69.4 °F 48.9 °F 29.60 in South 8 mph 20 mph 48% 0 in 865.00 W/m2
12:14 70.1 °F 50 °F 29.60 in South 9 mph 18 mph 49% 0 in 865.00 W/m2
12:19 70.6 °F 49.4 °F 29.59 in South 12 mph 20 mph 47% 0 in 798.00 W/m2
12:24 70.1 °F 47.8 °F 29.59 in South 9 mph 23 mph 45% 0 in 837.00 W/m2
12:29 70.3 °F 50.2 °F 29.59 in SSE 9 mph 23 mph 49% 0 in 840.00 W/m2
12:34 70.6 °F 47.6 °F 29.59 in South 13 mph 17 mph 44% 0 in 861.00 W/m2
12:39 71.1 °F 49.8 °F 29.58 in SSE 24 mph 24 mph 47% 0 in 872.00 W/m2
12:44 71.4 °F 48.9 °F 29.58 in SE 12 mph 24 mph 45% 0 in 851.00 W/m2
12:49 71.8 °F 48.1 °F 29.58 in SSE 19 mph 24 mph 43% 0 in 814.00 W/m2
12:54 72.2 °F 47.8 °F 29.58 in SSW 18 mph 22 mph 42% 0 in 809.00 W/m2
12:59 72.4 °F 47.4 °F 29.58 in South 19 mph 22 mph 41% 0 in 812.00 W/m2
13:04 72.5 °F 47.5 °F 29.58 in South 14 mph 21 mph 41% 0 in 798.00 W/m2
13:09 72.7 °F 47 °F 29.58 in South 13 mph 18 mph 40% 0 in 835.00 W/m2
13:14 72.9 °F 47.2 °F 29.58 in SSW 15 mph 19 mph 40% 0 in 838.00 W/m2
13:19 73.1 °F 48 °F 29.57 in SSE 12 mph 24 mph 41% 0 in 809.00 W/m2
13:24 73.3 °F 48.2 °F 29.57 in South 15 mph 24 mph 41% 0 in 754.00 W/m2
13:29 73.1 °F 47.3 °F 29.57 in South 15 mph 24 mph 40% 0 in 782.00 W/m2
13:34 73.4 °F 48.9 °F 29.57 in SW 9 mph 24 mph 42% 0 in 798.00 W/m2
13:39 73.9 °F 48.7 °F 29.57 in SSE 10 mph 18 mph 41% 0 in 868.00 W/m2
13:44 74 °F 49.4 °F 29.57 in South 12 mph 17 mph 42% 0 in 819.00 W/m2
13:49 74.2 °F 48.3 °F 29.57 in SSW 8 mph 17 mph 40% 0 in 819.00 W/m2
13:54 74.4 °F 49.2 °F 29.57 in SSE 13 mph 20 mph 41% 0 in 779.00 W/m2
13:59 74 °F 48.1 °F 29.57 in South 9 mph 21 mph 40% 0 in 812.00 W/m2
14:04 73.9 °F 49.4 °F 29.57 in SE 9 mph 21 mph 42% 0 in 773.00 W/m2
14:09 74.4 °F 48.5 °F 29.57 in South 9 mph 19 mph 40% 0 in 698.00 W/m2
14:14 74.1 °F 47.6 °F 29.57 in South 13 mph 20 mph 39% 0 in 626.00 W/m2
14:19 73.9 °F 48.7 °F 29.57 in SSE 5 mph 20 mph 41% 0 in 591.00 W/m2
14:24 74.2 °F 50.3 °F 29.57 in SSE 11 mph 18 mph 43% 0 in 573.00 W/m2
14:29 74.1 °F 48.9 °F 29.57 in SE 10 mph 18 mph 41% 0 in 566.00 W/m2
14:34 74.1 °F 48.2 °F 29.56 in SE 6 mph 17 mph 40% 0 in 605.00 W/m2
14:39 74.2 °F 49 °F 29.56 in SE 8 mph 17 mph 41% 0 in 679.00 W/m2
14:44 74.5 °F 50.5 °F 29.56 in ESE 12 mph 17 mph 43% 0 in 691.00 W/m2
14:49 74.3 °F 49.7 °F 29.56 in ESE 12 mph 18 mph 42% 0 in 717.00 W/m2
14:54 74.4 °F 50.4 °F 29.56 in ESE 14 mph 18 mph 43% 0 in 708.00 W/m2
14:59 74.6 °F 50.6 °F 29.56 in ESE 12 mph 18 mph 43% 0 in 645.00 W/m2
15:04 74.1 °F 49.5 °F 29.56 in SE 11 mph 18 mph 42% 0 in 608.00 W/m2
15:09 74 °F 49.4 °F 29.56 in ESE 12 mph 17 mph 42% 0 in 552.00 W/m2
15:14 73.8 °F 49.9 °F 29.56 in ESE 14 mph 16 mph 43% 0 in 555.00 W/m2
15:19 73.9 °F 49.4 °F 29.56 in SSE 12 mph 17 mph 42% 0 in 577.00 W/m2
15:24 74 °F 48.8 °F 29.56 in ESE 13 mph 17 mph 41% 0 in 761.00 W/m2
15:29 74.5 °F 51.2 °F 29.56 in SE 11 mph 17 mph 44% 0 in 629.00 W/m2
15:34 74.5 °F 50.5 °F 29.55 in SE 13 mph 17 mph 43% 0 in 557.00 W/m2
15:39 74.6 °F 50 °F 29.55 in East 8 mph 17 mph 42% 0 in 575.00 W/m2
15:44 74.7 °F 51.3 °F 29.55 in SE 14 mph 17 mph 44% 0 in 596.00 W/m2
15:49 75 °F 50.3 °F 29.55 in SSE 11 mph 17 mph 42% 0 in 545.00 W/m2
15:54 74.6 °F 51.2 °F 29.55 in SE 11 mph 17 mph 44% 0 in 519.00 W/m2
15:59 74.9 °F 50.9 °F 29.55 in ESE 13 mph 16 mph 43% 0 in 628.00 W/m2
16:04 75.1 °F 51.1 °F 29.55 in ESE 11 mph 16 mph 43% 0 in 712.00 W/m2
16:09 75.1 °F 50.4 °F 29.55 in SSE 11 mph 18 mph 42% 0 in 519.00 W/m2
16:14 75.3 °F 51.9 °F 29.55 in SE 10 mph 18 mph 44% 0 in 826.00 W/m2
16:19 75.6 °F 51.5 °F 29.55 in SSE 13 mph 18 mph 43% 0 in 805.00 W/m2
16:24 75.6 °F 52.1 °F 29.55 in ESE 11 mph 18 mph 44% 0 in 765.00 W/m2
16:29 75.8 °F 52.9 °F 29.55 in ESE 13 mph 18 mph 45% 0 in 719.00 W/m2
16:34 76 °F 51.2 °F 29.54 in ESE 13 mph 18 mph 42% 0 in 722.00 W/m2
16:39 76 °F 51.9 °F 29.55 in SSE 17 mph 18 mph 43% 0 in 680.00 W/m2
16:44 75.9 °F 52.4 °F 29.54 in ESE 13 mph 18 mph 44% 0 in 548.00 W/m2
16:49 76.1 °F 51.3 °F 29.54 in ESE 11 mph 18 mph 42% 0 in 568.00 W/m2
16:54 76.5 °F 52.3 °F 29.54 in ESE 9 mph 17 mph 43% 0 in 617.00 W/m2
16:59 76.6 °F 52.4 °F 29.54 in SE 10 mph 17 mph 43% 0 in 710.00 W/m2
17:04 76.9 °F 52.7 °F 29.54 in SE 13 mph 17 mph 43% 0 in 698.00 W/m2
17:09 77 °F 51.5 °F 29.54 in SE 9 mph 15 mph 41% 0 in 221.00 W/m2
17:14 76.2 °F 52.1 °F 29.54 in ESE 9 mph 17 mph 43% 0 in 654.00 W/m2
17:19 76.5 °F 51.7 °F 29.54 in SE 11 mph 17 mph 42% 0 in 519.00 W/m2
17:24 76.7 °F 51.2 °F 29.54 in ESE 5 mph 15 mph 41% 0 in 582.00 W/m2
17:29 77.2 °F 52.3 °F 29.54 in SSE 10 mph 14 mph 42% 0 in 483.00 W/m2
17:34 76.9 °F 51.4 °F 29.54 in SE 10 mph 16 mph 41% 0 in 489.00 W/m2
17:39 76.8 °F 51.3 °F 29.53 in ESE 11 mph 16 mph 41% 0 in 462.00 W/m2
17:44 76.9 °F 52.7 °F 29.53 in SE 7 mph 16 mph 43% 0 in 494.00 W/m2
17:49 77 °F 51.5 °F 29.53 in ESE 7 mph 16 mph 41% 0 in 485.00 W/m2
17:54 77.2 °F 53 °F 29.53 in ESE 3 mph 10 mph 43% 0 in 506.00 W/m2
17:59 77.4 °F 51.9 °F 29.53 in SE 2 mph 10 mph 41% 0 in 512.00 W/m2
18:04 77.6 °F 50.7 °F 29.54 in South 4 mph 10 mph 39% 0 in 503.00 W/m2
18:09 77.9 °F 50.9 °F 29.54 in WSW 3 mph 7 mph 39% 0 in 496.00 W/m2
18:14 77.6 °F 50 °F 29.53 in NW 1 mph 7 mph 38% 0 in 506.00 W/m2
18:19 77.6 °F 50.7 °F 29.53 in ENE 1 mph 5 mph 39% 0 in 497.00 W/m2
18:24 77.6 °F 51.4 °F 29.53 in East 6 mph 7 mph 40% 0 in 171.00 W/m2
18:29 77.2 °F 51.7 °F 29.53 in East 1 mph 7 mph 41% 0 in 163.00 W/m2
18:34 77.1 °F 52.2 °F 29.53 in South 2 mph 7 mph 42% 0 in 445.00 W/m2
18:39 77.4 °F 51.9 °F 29.54 in South 3 mph 7 mph 41% 0 in 401.00 W/m2
18:44 78 °F 53 °F 29.54 in South 6 mph 7 mph 42% 0 in 434.00 W/m2
18:49 78 °F 51.7 °F 29.54 in SE 7 mph 7 mph 40% 0 in 404.00 W/m2
18:54 77.6 °F 52 °F 29.54 in SE 3 mph 12 mph 41% 0 in 436.00 W/m2
18:59 77.3 °F 53.1 °F 29.54 in SSE 8 mph 12 mph 43% 0 in 411.00 W/m2
19:04 76.9 °F 52.1 °F 29.54 in SE 5 mph 12 mph 42% 0 in 388.00 W/m2
19:09 76.6 °F 51.8 °F 29.54 in SSE 5 mph 12 mph 42% 0 in 144.00 W/m2
19:14 75.9 °F 51.8 °F 29.54 in South 5 mph 11 mph 43% 0 in 114.00 W/m2
19:19 75.4 °F 52 °F 29.54 in SE 5 mph 11 mph 44% 0 in 260.00 W/m2
19:24 75.3 °F 53.1 °F 29.54 in SSE 6 mph 11 mph 46% 0 in 257.00 W/m2
19:29 75.4 °F 52 °F 29.54 in SE 7 mph 11 mph 44% 0 in 243.00 W/m2
19:34 75.3 °F 51.9 °F 29.54 in ESE 7 mph 11 mph 44% 0 in 192.00 W/m2
19:39 75.2 °F 51.8 °F 29.54 in ESE 6 mph 11 mph 44% 0 in 234.00 W/m2
19:44 75.2 °F 51.8 °F 29.55 in SE 5 mph 10 mph 44% 0 in 207.00 W/m2
19:49 75.2 °F 52.4 °F 29.54 in SE 7 mph 10 mph 45% 0 in 232.00 W/m2
19:54 75.1 °F 52.3 °F 29.55 in SE 9 mph 9 mph 45% 0 in 153.00 W/m2
19:59 74.6 °F 53 °F 29.55 in SE 5 mph 9 mph 47% 0 in 93.00 W/m2
20:04 74 °F 51.9 °F 29.55 in SE 3 mph 9 mph 46% 0 in 77.00 W/m2
20:09 73.6 °F 51.5 °F 29.55 in SE 3 mph 9 mph 46% 0 in 65.00 W/m2
20:14 73.3 °F 51.8 °F 29.55 in ESE 4 mph 9 mph 47% 0 in 58.00 W/m2
20:19 73 °F 51.6 °F 29.55 in East 5 mph 6 mph 47% 0 in 53.00 W/m2
20:24 72.8 °F 51.4 °F 29.55 in East 4 mph 7 mph 47% 0 in 46.00 W/m2
20:29 72.5 °F 51.1 °F 29.55 in East 4 mph 7 mph 47% 0 in 47.00 W/m2
20:34 72.1 °F 50.8 °F 29.55 in ENE 4 mph 7 mph 47% 0 in 53.00 W/m2
20:39 71.9 °F 50.6 °F 29.55 in ESE 6 mph 7 mph 47% 0 in 44.00 W/m2
20:44 71.5 °F 50.2 °F 29.55 in East 5 mph 8 mph 47% 0 in 32.00 W/m2
20:49 71.1 °F 49.8 °F 29.55 in East 8 mph 9 mph 47% 0 in 21.00 W/m2
20:54 70.7 °F 50 °F 29.55 in East 5 mph 9 mph 48% 0 in 14.00 W/m2
20:59 70.3 °F 50.2 °F 29.55 in East 5 mph 9 mph 49% 0 in 11.00 W/m2
21:04 69.8 °F 50.3 °F 29.56 in East 5 mph 9 mph 50% 0 in 9.00 W/m2
21:09 69 °F 50.1 °F 29.56 in East 7 mph 10 mph 51% 0 in 7.00 W/m2
21:14 68.6 °F 50.3 °F 29.56 in East 7 mph 10 mph 52% 0 in 0.00 W/m2
21:19 68.4 °F 50.1 °F 29.56 in ENE 8 mph 10 mph 52% 0 in 0.00 W/m2
21:24 68.3 °F 49.5 °F 29.57 in East 8 mph 10 mph 51% 0 in 0.00 W/m2
21:29 68.2 °F 49.4 °F 29.57 in ENE 7 mph 10 mph 51% 0 in 0.00 W/m2
21:34 68 °F 49.2 °F 29.57 in ENE 9 mph 10 mph 51% 0 in 0.00 W/m2
21:39 67.7 °F 49.4 °F 29.57 in ENE 8 mph 11 mph 52% 0 in 0.00 W/m2
21:44 67.3 °F 49.1 °F 29.57 in ENE 6 mph 11 mph 52% 0 in 0.00 W/m2
21:49 67 °F 49.3 °F 29.57 in ENE 8 mph 11 mph 53% 0 in 0.00 W/m2
21:54 66.3 °F 49.2 °F 29.58 in ENE 10 mph 11 mph 54% 0 in 0.00 W/m2
21:59 65.8 °F 49.7 °F 29.58 in ENE 9 mph 11 mph 56% 0 in 0.00 W/m2
22:04 65.1 °F 49.5 °F 29.58 in ENE 8 mph 11 mph 57% 0 in 0.00 W/m2
22:09 64.6 °F 49.5 °F 29.58 in ENE 8 mph 11 mph 58% 0 in 0.00 W/m2
22:14 64.3 °F 49.7 °F 29.58 in East 9 mph 11 mph 59% 0 in 0.00 W/m2
22:19 64 °F 49.4 °F 29.58 in ENE 10 mph 12 mph 59% 0 in 0.00 W/m2
22:24 63.6 °F 49.5 °F 29.59 in ENE 9 mph 14 mph 60% 0 in 0.00 W/m2
22:29 63.4 °F 49.7 °F 29.59 in East 10 mph 14 mph 61% 0 in 0.00 W/m2
22:34 63.2 °F 49.5 °F 29.59 in East 7 mph 14 mph 61% 0 in 0.00 W/m2
22:39 63.1 °F 49.4 °F 29.59 in ENE 9 mph 14 mph 61% 0 in 0.00 W/m2
22:44 62.9 °F 49.7 °F 29.59 in ENE 8 mph 13 mph 62% 0 in 0.00 W/m2
22:49 62.7 °F 49.5 °F 29.59 in ENE 9 mph 13 mph 62% 0 in 0.00 W/m2
22:54 62.6 °F 49.4 °F 29.59 in ENE 9 mph 11 mph 62% 0 in 0.00 W/m2
22:59 62.5 °F 49.7 °F 29.60 in ENE 5 mph 11 mph 63% 0 in 0.00 W/m2
23:04 62.3 °F 50 °F 29.61 in NW 6 mph 10 mph 64% 0 in 0.00 W/m2
23:09 61.6 °F 50.1 °F 29.61 in North 5 mph 11 mph 66% 0 in 0.00 W/m2
23:14 61.2 °F 50.2 °F 29.61 in NNE 9 mph 10 mph 67% 0 in 0.00 W/m2
23:19 60.9 °F 50.3 °F 29.61 in North 9 mph 13 mph 68% 0 in 0.00 W/m2
23:24 60.6 °F 49.6 °F 29.61 in NE 9 mph 13 mph 67% 0 in 0.00 W/m2
23:29 60.4 °F 49.8 °F 29.61 in ENE 10 mph 12 mph 68% 0 in 0.00 W/m2
23:34 60 °F 49.4 °F 29.61 in ENE 9 mph 12 mph 68% 0 in 0.00 W/m2
23:39 59.7 °F 49.5 °F 29.61 in NE 9 mph 11 mph 69% 0 in 0.00 W/m2
23:44 59.2 °F 49 °F 29.61 in NE 9 mph 11 mph 69% 0 in 0.00 W/m2
23:49 58.7 °F 48.9 °F 29.61 in NE 10 mph 12 mph 70% 0 in 0.00 W/m2
23:54 58.5 °F 49.1 °F 29.60 in NE 9 mph 12 mph 71% 0 in 0.00 W/m2
23:59 58.4 °F 49 °F 29.60 in NE 7 mph 12 mph 71% 0 in 0.00 W/m2
Bismarck, North Dakota, USA
Compliments of Weather Underground - 4 mb